owner,sensor,date,latitude,longitude,vertical_datum,direction_of_sea_water_velocity,sea_water_speed,upward_sea_water_velocity,qcFlag 
TABS,ioos:station:wmo:42048:1,1995-12-01T00:00:00Z,27.9396,-96.8429,2.0,267.3179022,12.82404382,-99999.0,'11111222,11111222,99999999' 
TABS,ioos:station:wmo:42048:1,1995-12-01T00:30:00Z,27.9396,-96.8429,2.0,266.487476,12.24299391,-99999.0,'11111222,11111222,99999999' 
TABS,ioos:station:wmo:42048:1,1995-12-01T01:00:00Z,27.9396,-96.8429,2.0,274.1156519,12.40197565,-99999.0,'11111222,11111222,99999999' 
TABS,ioos:station:wmo:42048:1,1995-12-01T01:30:00Z,27.9396,-96.8429,2.0,267.2989561,9.550607311,-99999.0,'11133222,11111222,99999999' 
TABS,ioos:station:wmo:42048:1,1995-12-01T02:00:00Z,27.9396,-96.8429,2.0,270.0004209,9.39,-99999.0,'11133222,11111222,99999999' 
TABS,ioos:station:wmo:42048:1,1995-12-01T02:30:00Z,27.9396,-96.8429,2.0,261.8914734,7.373710057,-99999.0,'11133222,11111222,99999999' 
TABS,ioos:station:wmo:42048:1,1995-12-01T03:00:00Z,27.9396,-96.8429,2.0,265.9838523,6.425776218,-99999.0,'11133222,11111222,99999999' 
TABS,ioos:station:wmo:42048:1,1995-12-01T03:30:00Z,27.9396,-96.8429,2.0,248.4606887,6.891226306,-99999.0,'11133222,11111222,99999999' 
TABS,ioos:station:wmo:42048:1,1995-12-01T04:00:00Z,27.9396,-96.8429,2.0,261.0639861,4.828602282,-99999.0,'11133222,11111222,99999999' 
TABS,ioos:station:wmo:42048:1,1995-12-01T04:30:00Z,27.9396,-96.8429,2.0,250.4558638,4.902448368,-99999.0,'11133222,11111222,99999999' 
TABS,ioos:station:wmo:42048:1,1995-12-01T05:00:00Z,27.9396,-96.8429,2.0,235.56854,3.431107693,-99999.0,'11133222,11111222,99999999' 
TABS,ioos:station:wmo:42048:1,1995-12-01T05:30:00Z,27.9396,-96.8429,2.0,238.1854148,5.083778123,-99999.0,'11133222,11111222,99999999' 
TABS,ioos:station:wmo:42048:1,1995-12-01T06:00:00Z,27.9396,-96.8429,2.0,249.4963646,2.540964384,-99999.0,'11133222,11111222,99999999' 
TABS,ioos:station:wmo:42048:1,1995-12-01T06:30:00Z,27.9396,-96.8429,2.0,224.9996843,3.577960313,-99999.0,'11133222,11111222,99999999' 
TABS,ioos:station:wmo:42048:1,1995-12-01T07:00:00Z,27.9396,-96.8429,2.0,247.7778198,3.543162429,-99999.0,'11133222,11111222,99999999' 
TABS,ioos:station:wmo:42048:1,1995-12-01T07:30:00Z,27.9396,-96.8429,2.0,211.5247544,2.275895428,-99999.0,'11133222,11111222,99999999' 
TABS,ioos:station:wmo:42048:1,1995-12-01T08:00:00Z,27.9396,-96.8429,2.0,222.6968108,2.639640127,-99999.0,'11133222,11111222,99999999' 
TABS,ioos:station:wmo:42048:1,1995-12-01T08:30:00Z,27.9396,-96.8429,2.0,210.8502413,1.735569071,-99999.0,'11133222,11111222,99999999' 
TABS,ioos:station:wmo:42048:1,1995-12-01T09:00:00Z,27.9396,-96.8429,2.0,211.5247544,2.275895428,-99999.0,'11133222,11111222,99999999' 
TABS,ioos:station:wmo:42048:1,1995-12-01T09:30:00Z,27.9396,-96.8429,2.0,224.9996843,1.895046174,-99999.0,'11133222,11111222,99999999' 
TABS,ioos:station:wmo:42048:1,1995-12-01T10:00:00Z,27.9396,-96.8429,2.0,205.3372026,3.131213822,-99999.0,'11133222,11111222,99999999' 
TABS,ioos:station:wmo:42048:1,1995-12-01T10:30:00Z,27.9396,-96.8429,2.0,213.5909928,1.60863296,-99999.0,'11133222,11111222,99999999' 
TABS,ioos:station:wmo:42048:1,1995-12-01T11:00:00Z,27.9396,-96.8429,2.0,190.0852423,2.569708155,-99999.0,'11133222,11111222,99999999' 
TABS,ioos:station:wmo:42048:1,1995-12-01T11:30:00Z,27.9396,-96.8429,2.0,196.5118227,2.638825496,-99999.0,'11133222,11111222,99999999' 
TABS,ioos:station:wmo:42048:1,1995-12-01T12:00:00Z,27.9396,-96.8429,2.0,194.1492325,2.454465319,-99999.0,'11133222,11111222,99999999' 
TABS,ioos:station:wmo:42048:1,1995-12-01T12:30:00Z,27.9396,-96.8429,2.0,185.2257047,1.646845469,-99999.0,'11133222,11111222,99999999' 
TABS,ioos:station:wmo:42048:1,1995-12-01T13:00:00Z,27.9396,-96.8429,2.0,215.485486,2.566748916,-99999.0,'11133222,11111222,99999999' 
TABS,ioos:station:wmo:42048:1,1995-12-01T13:30:00Z,27.9396,-96.8429,2.0,214.6333859,2.357795581,-99999.0,'11133222,11111222,99999999' 
TABS,ioos:station:wmo:42048:1,1995-12-01T14:00:00Z,27.9396,-96.8429,2.0,209.3803287,2.731300057,-99999.0,'11133222,11111222,99999999' 
TABS,ioos:station:wmo:42048:1,1995-12-01T14:30:00Z,27.9396,-96.8429,2.0,203.0658506,2.27160736,-99999.0,'11133222,11111222,99999999' 
TABS,ioos:station:wmo:42048:1,1995-12-01T15:00:00Z,27.9396,-96.8429,2.0,186.3868916,1.348369386,-99999.0,'11133222,11111222,99999999' 
TABS,ioos:station:wmo:42048:1,1995-12-01T15:30:00Z,27.9396,-96.8429,2.0,179.9997895,0.75,-99999.0,'11133222,11111222,99999999' 
TABS,ioos:station:wmo:42048:1,1995-12-01T16:00:00Z,27.9396,-96.8429,2.0,167.3804968,1.373171512,-99999.0,'11133222,11111222,99999999' 
TABS,ioos:station:wmo:42048:1,1995-12-01T16:30:00Z,27.9396,-96.8429,2.0,141.3400717,0.960468636,-99999.0,'11133222,11111222,99999999' 
TABS,ioos:station:wmo:42048:1,1995-12-01T17:00:00Z,27.9396,-96.8429,2.0,120.9636841,0.874642784,-99999.0,'11133222,11111222,99999999' 
TABS,ioos:station:wmo:42048:1,1995-12-01T17:30:00Z,27.9396,-96.8429,2.0,90.0,0.45,-99999.0,'11133222,11111222,99999999' 
TABS,ioos:station:wmo:42048:1,1995-12-01T18:00:00Z,27.9396,-96.8429,2.0,54.20268068,1.282224629,-99999.0,'11133222,11111222,99999999' 
TABS,ioos:station:wmo:42048:1,1995-12-01T18:30:00Z,27.9396,-96.8429,2.0,48.03413778,2.003921156,-99999.0,'11133222,11111222,99999999' 
TABS,ioos:station:wmo:42048:1,1995-12-01T19:00:00Z,27.9396,-96.8429,2.0,48.03413778,2.003921156,-99999.0,'11133222,11111222,99999999' 
TABS,ioos:station:wmo:42048:1,1995-12-01T19:30:00Z,27.9396,-96.8429,2.0,47.13171349,2.851613578,-99999.0,'11133222,11111222,99999999' 
TABS,ioos:station:wmo:42048:1,1995-12-01T20:00:00Z,27.9396,-96.8429,2.0,41.16337041,4.755344362,-99999.0,'11133222,11111222,99999999' 
TABS,ioos:station:wmo:42048:1,1995-12-01T20:30:00Z,27.9396,-96.8429,2.0,43.44071781,3.897601827,-99999.0,'11133222,11111222,99999999' 
TABS,ioos:station:wmo:42048:1,1995-12-01T21:00:00Z,27.9396,-96.8429,2.0,50.22602042,4.657982396,-99999.0,'11133222,11111222,99999999' 
TABS,ioos:station:wmo:42048:1,1995-12-01T21:30:00Z,27.9396,-96.8429,2.0,63.43501094,3.667151483,-99999.0,'11133222,11111222,99999999' 
TABS,ioos:station:wmo:42048:1,1995-12-01T22:00:00Z,27.9396,-96.8429,2.0,53.1814369,4.472001789,-99999.0,'11133222,11111222,99999999' 
TABS,ioos:station:wmo:42048:1,1995-12-01T22:30:00Z,27.9396,-96.8429,2.0,62.74473536,5.196999134,-99999.0,'11133222,11111222,99999999' 
TABS,ioos:station:wmo:42048:1,1995-12-01T23:00:00Z,27.9396,-96.8429,2.0,48.31352288,5.38301031,-99999.0,'11133222,11111222,99999999' 
TABS,ioos:station:wmo:42048:1,1995-12-01T23:30:00Z,27.9396,-96.8429,2.0,47.61850857,4.643468531,-99999.0,'11133222,11111222,99999999' 
TABS,ioos:station:wmo:42048:1,1995-12-02T00:00:00Z,27.9396,-96.8429,2.0,51.67362061,4.563474553,-99999.0,'11133222,11111222,99999999' 
TABS,ioos:station:wmo:42048:1,1995-12-02T00:30:00Z,27.9396,-96.8429,2.0,40.57124662,4.120594617,-99999.0,'11133222,11111222,99999999' 
TABS,ioos:station:wmo:42048:1,1995-12-02T01:00:00Z,27.9396,-96.8429,2.0,48.83684004,4.755344362,-99999.0,'11133222,11111222,99999999' 
TABS,ioos:station:wmo:42048:1,1995-12-02T01:30:00Z,27.9396,-96.8429,2.0,53.4089973,5.754068126,-99999.0,'11133222,11111222,99999999' 
TABS,ioos:station:wmo:42048:1,1995-12-02T02:00:00Z,27.9396,-96.8429,2.0,50.78838451,5.188333066,-99999.0,'11133222,11111222,99999999' 
TABS,ioos:station:wmo:42048:1,1995-12-02T02:30:00Z,27.9396,-96.8429,2.0,63.48307775,5.330787934,-99999.0,'11133222,11111222,99999999' 
TABS,ioos:station:wmo:42048:1,1995-12-02T03:00:00Z,27.9396,-96.8429,2.0,58.75427208,4.877478857,-99999.0,'11133222,11111222,99999999' 
TABS,ioos:station:wmo:42048:1,1995-12-02T03:30:00Z,27.9396,-96.8429,2.0,59.55428514,5.880926798,-99999.0,'11133222,11111222,99999999' 
TABS,ioos:station:wmo:42048:1,1995-12-02T04:00:00Z,27.9396,-96.8429,2.0,71.53551471,6.125332644,-99999.0,'11133222,11111222,99999999' 
TABS,ioos:station:wmo:42048:1,1995-12-02T04:30:00Z,27.9396,-96.8429,2.0,57.09952002,6.038484909,-99999.0,'11133222,11111222,99999999' 
TABS,ioos:station:wmo:42048:1,1995-12-02T05:00:00Z,27.9396,-96.8429,2.0,62.29305629,6.731901663,-99999.0,'11133222,11111222,99999999' 
TABS,ioos:station:wmo:42048:1,1995-12-02T05:30:00Z,27.9396,-96.8429,2.0,66.1787095,7.006925146,-99999.0,'11133222,11111222,99999999' 
TABS,ioos:station:wmo:42048:1,1995-12-02T06:00:00Z,27.9396,-96.8429,2.0,65.8049547,8.003024428,-99999.0,'11133222,11111222,99999999' 
TABS,ioos:station:wmo:42048:1,1995-12-02T06:30:00Z,27.9396,-96.8429,2.0,65.78830231,6.534829761,-99999.0,'11133222,11111222,99999999' 
TABS,ioos:station:wmo:42048:1,1995-12-02T07:00:00Z,27.9396,-96.8429,2.0,64.35905414,8.596563267,-99999.0,'11133222,11111222,99999999' 
TABS,ioos:station:wmo:42048:1,1995-12-02T07:30:00Z,27.9396,-96.8429,2.0,68.81017047,7.829361404,-99999.0,'11133222,11111222,99999999' 
TABS,ioos:station:wmo:42048:1,1995-12-02T08:00:00Z,27.9396,-96.8429,2.0,66.02170009,7.332830286,-99999.0,'11133222,11111222,99999999' 
TABS,ioos:station:wmo:42048:1,1995-12-02T08:30:00Z,27.9396,-96.8429,2.0,68.81017047,7.829361404,-99999.0,'11133222,11111222,99999999' 
TABS,ioos:station:wmo:42048:1,1995-12-02T09:00:00Z,27.9396,-96.8429,2.0,63.91589835,7.45978552,-99999.0,'11133222,11111222,99999999' 
TABS,ioos:station:wmo:42048:1,1995-12-02T09:30:00Z,27.9396,-96.8429,2.0,70.12874286,7.443178085,-99999.0,'11133222,11111222,99999999' 
TABS,ioos:station:wmo:42048:1,1995-12-02T10:00:00Z,27.9396,-96.8429,2.0,66.79199181,7.942726232,-99999.0,'11133222,11111222,99999999' 
TABS,ioos:station:wmo:42048:1,1995-12-02T10:30:00Z,27.9396,-96.8429,2.0,69.19997822,7.969403993,-99999.0,'11133222,11111222,99999999' 
TABS,ioos:station:wmo:42048:1,1995-12-02T11:00:00Z,27.9396,-96.8429,2.0,65.2785878,8.201670562,-99999.0,'11133222,11111222,99999999' 
TABS,ioos:station:wmo:42048:1,1995-12-02T11:30:00Z,27.9396,-96.8429,2.0,64.78496585,8.732032982,-99999.0,'11133222,11111222,99999999' 
TABS,ioos:station:wmo:42048:1,1995-12-02T12:00:00Z,27.9396,-96.8429,2.0,68.58964301,8.163357153,-99999.0,'11133222,11111222,99999999' 
TABS,ioos:station:wmo:42048:1,1995-12-02T12:30:00Z,27.9396,-96.8429,2.0,63.89520704,7.795184411,-99999.0,'11133222,11111222,99999999' 
TABS,ioos:station:wmo:42048:1,1995-12-02T13:00:00Z,27.9396,-96.8429,2.0,61.64888622,8.465394261,-99999.0,'11133222,11111222,99999999' 
TABS,ioos:station:wmo:42048:1,1995-12-02T13:30:00Z,27.9396,-96.8429,2.0,63.4029664,7.996180338,-99999.0,'11133222,11111222,99999999' 
TABS,ioos:station:wmo:42048:1,1995-12-02T14:00:00Z,27.9396,-96.8429,2.0,61.84876769,7.270006878,-99999.0,'11133222,11111222,99999999' 
TABS,ioos:station:wmo:42048:1,1995-12-02T14:30:00Z,27.9396,-96.8429,2.0,59.27920693,7.281895358,-99999.0,'11133222,11111222,99999999' 
TABS,ioos:station:wmo:42048:1,1995-12-02T15:00:00Z,27.9396,-96.8429,2.0,59.03631587,8.688118323,-99999.0,'11133222,11111222,99999999' 
TABS,ioos:station:wmo:42048:1,1995-12-02T15:30:00Z,27.9396,-96.8429,2.0,65.70964866,8.338159269,-99999.0,'11133222,11111222,99999999' 
TABS,ioos:station:wmo:42048:1,1995-12-02T16:00:00Z,27.9396,-96.8429,2.0,58.66872696,8.019438883,-99999.0,'11133222,11111222,99999999' 
TABS,ioos:station:wmo:42048:1,1995-12-02T16:30:00Z,27.9396,-96.8429,2.0,56.29261731,9.135912653,-99999.0,'11133222,11111222,99999999' 
TABS,ioos:station:wmo:42048:1,1995-12-02T17:00:00Z,27.9396,-96.8429,2.0,59.90755114,9.812568471,-99999.0,'11133222,11111222,99999999' 
TABS,ioos:station:wmo:42048:1,1995-12-02T17:30:00Z,27.9396,-96.8429,2.0,53.2660095,10.96803082,-99999.0,'11111222,11111222,99999999' 
TABS,ioos:station:wmo:42048:1,1995-12-02T18:00:00Z,27.9396,-96.8429,2.0,57.76671905,11.45548777,-99999.0,'11111222,11111222,99999999' 
TABS,ioos:station:wmo:42048:1,1995-12-02T18:30:00Z,27.9396,-96.8429,2.0,67.3839796,11.62384618,-99999.0,'11111222,11111222,99999999' 
TABS,ioos:station:wmo:42048:1,1995-12-02T19:00:00Z,27.9396,-96.8429,2.0,62.80133208,11.72665767,-99999.0,'11111222,11111222,99999999' 
TABS,ioos:station:wmo:42048:1,1995-12-02T19:30:00Z,27.9396,-96.8429,2.0,58.72414335,12.90546008,-99999.0,'11111222,11111222,99999999' 
TABS,ioos:station:wmo:42048:1,1995-12-02T20:00:00Z,27.9396,-96.8429,2.0,56.51043246,12.6860711,-99999.0,'11111222,11111222,99999999' 
TABS,ioos:station:wmo:42048:1,1995-12-02T20:30:00Z,27.9396,-96.8429,2.0,55.20995042,14.87980175,-99999.0,'11111222,11111222,99999999' 
TABS,ioos:station:wmo:42048:1,1995-12-02T21:00:00Z,27.9396,-96.8429,2.0,55.02096751,14.54792081,-99999.0,'11111222,11111222,99999999' 
TABS,ioos:station:wmo:42048:1,1995-12-02T21:30:00Z,27.9396,-96.8429,2.0,51.09595252,16.84661687,-99999.0,'11111222,11111222,99999999' 
TABS,ioos:station:wmo:42048:1,1995-12-02T22:00:00Z,27.9396,-96.8429,2.0,53.13718182,16.38600012,-99999.0,'11111222,11111222,99999999' 
TABS,ioos:station:wmo:42048:1,1995-12-02T22:30:00Z,27.9396,-96.8429,2.0,55.84154618,14.58632922,-99999.0,'11111222,11111222,99999999' 
TABS,ioos:station:wmo:42048:1,1995-12-02T23:00:00Z,27.9396,-96.8429,2.0,53.97865162,14.18155492,-99999.0,'11111222,11111222,99999999' 
TABS,ioos:station:wmo:42048:1,1995-12-02T23:30:00Z,27.9396,-96.8429,2.0,46.47901024,16.43863741,-99999.0,'11111222,11111222,99999999' 
TABS,ioos:station:wmo:42048:1,1995-12-03T00:00:00Z,27.9396,-96.8429,2.0,45.74349694,15.80516688,-99999.0,'11111222,11111222,99999999' 
TABS,ioos:station:wmo:42048:1,1995-12-03T00:30:00Z,27.9396,-96.8429,2.0,42.59861964,15.18785041,-99999.0,'11111222,11111222,99999999' 
TABS,ioos:station:wmo:42048:1,1995-12-03T01:00:00Z,27.9396,-96.8429,2.0,41.40033446,15.09114972,-99999.0,'11111222,11111222,99999999' 
TABS,ioos:station:wmo:42048:1,1995-12-03T01:30:00Z,27.9396,-96.8429,2.0,37.43066895,15.94276325,-99999.0,'11111222,11111222,99999999' 
TABS,ioos:station:wmo:42048:1,1995-12-03T02:00:00Z,27.9396,-96.8429,2.0,35.48735617,18.48338173,-99999.0,'11111222,11111222,99999999' 
TABS,ioos:station:wmo:42048:1,1995-12-03T02:30:00Z,27.9396,-96.8429,2.0,34.87833542,19.79595918,-99999.0,'11111222,11111222,99999999' 
TABS,ioos:station:wmo:42048:1,1995-12-03T03:00:00Z,27.9396,-96.8429,2.0,31.61964866,21.87779239,-99999.0,'11111222,11111222,99999999' 
TABS,ioos:station:wmo:42048:1,1995-12-03T03:30:00Z,27.9396,-96.8429,2.0,30.57249584,22.84585958,-99999.0,'11111222,11111222,99999999' 
TABS,ioos:station:wmo:42048:1,1995-12-03T04:00:00Z,27.9396,-96.8429,2.0,31.46334584,23.41216137,-99999.0,'11111222,11111222,99999999' 
TABS,ioos:station:wmo:42048:1,1995-12-03T04:30:00Z,27.9396,-96.8429,2.0,31.59651003,23.60993435,-99999.0,'11111222,11111222,99999999' 
TABS,ioos:station:wmo:42048:1,1995-12-03T05:00:00Z,27.9396,-96.8429,2.0,33.50465281,24.83683152,-99999.0,'11111222,11111222,99999999' 
TABS,ioos:station:wmo:42048:1,1995-12-03T05:30:00Z,27.9396,-96.8429,2.0,36.60667899,25.23826658,-99999.0,'11111222,11111222,99999999' 
TABS,ioos:station:wmo:42048:1,1995-12-03T06:00:00Z,27.9396,-96.8429,2.0,36.74497118,25.65806111,-99999.0,'11111222,11111222,99999999' 
TABS,ioos:station:wmo:42048:1,1995-12-03T06:30:00Z,27.9396,-96.8429,2.0,38.4666565,27.77878507,-99999.0,'11111222,11111222,99999999' 
TABS,ioos:station:wmo:42048:1,1995-12-03T07:00:00Z,27.9396,-96.8429,2.0,41.82499772,28.59687046,-99999.0,'11111222,11111222,99999999' 
TABS,ioos:station:wmo:42048:1,1995-12-03T07:30:00Z,27.9396,-96.8429,2.0,41.29806309,29.34960647,-99999.0,'11111222,11111222,99999999' 
TABS,ioos:station:wmo:42048:1,1995-12-03T08:00:00Z,27.9396,-96.8429,2.0,40.914498,29.57565553,-99999.0,'11111222,11111222,99999999' 
TABS,ioos:station:wmo:42048:1,1995-12-03T08:30:00Z,27.9396,-96.8429,2.0,43.5970068,30.03275878,-99999.0,'11111222,11111222,99999999' 
TABS,ioos:station:wmo:42048:1,1995-12-03T09:00:00Z,27.9396,-96.8429,2.0,43.64486505,31.09311178,-99999.0,'11111222,11111222,99999999' 
TABS,ioos:station:wmo:42048:1,1995-12-03T09:30:00Z,27.9396,-96.8429,2.0,43.35255434,29.51269557,-99999.0,'11111222,11111222,99999999' 
TABS,ioos:station:wmo:42048:1,1995-12-03T10:00:00Z,27.9396,-96.8429,2.0,45.62482097,29.18403159,-99999.0,'11111222,11111222,99999999' 
TABS,ioos:station:wmo:42048:1,1995-12-03T10:30:00Z,27.9396,-96.8429,2.0,47.89586043,29.11340585,-99999.0,'11111222,11111222,99999999' 
TABS,ioos:station:wmo:42048:1,1995-12-03T11:00:00Z,27.9396,-96.8429,2.0,46.24486544,29.29527607,-99999.0,'11111222,11111222,99999999' 
TABS,ioos:station:wmo:42048:1,1995-12-03T11:30:00Z,27.9396,-96.8429,2.0,49.36885521,29.05458484,-99999.0,'11111222,11111222,99999999' 
TABS,ioos:station:wmo:42048:1,1995-12-03T12:00:00Z,27.9396,-96.8429,2.0,49.53191676,28.01122097,-99999.0,'11111222,11111222,99999999' 
TABS,ioos:station:wmo:42048:1,1995-12-03T12:30:00Z,27.9396,-96.8429,2.0,47.95204025,28.69711658,-99999.0,'11111222,11111222,99999999' 
TABS,ioos:station:wmo:42048:1,1995-12-03T13:00:00Z,27.9396,-96.8429,2.0,49.80260004,27.70270745,-99999.0,'11111222,11111222,99999999' 
TABS,ioos:station:wmo:42048:1,1995-12-03T13:30:00Z,27.9396,-96.8429,2.0,46.97401952,27.50863501,-99999.0,'11111222,11111222,99999999' 
TABS,ioos:station:wmo:42048:1,1995-12-03T14:00:00Z,27.9396,-96.8429,2.0,50.93142066,26.48149731,-99999.0,'11111222,11111222,99999999' 
TABS,ioos:station:wmo:42048:1,1995-12-03T14:30:00Z,27.9396,-96.8429,2.0,48.45527052,26.28143451,-99999.0,'11111222,11111222,99999999' 
TABS,ioos:station:wmo:42048:1,1995-12-03T15:00:00Z,27.9396,-96.8429,2.0,46.20665906,25.18565663,-99999.0,'11111222,11111222,99999999' 
TABS,ioos:station:wmo:42048:1,1995-12-03T15:30:00Z,27.9396,-96.8429,2.0,47.75125618,26.37012135,-99999.0,'11111222,11111222,99999999' 
TABS,ioos:station:wmo:42048:1,1995-12-03T16:00:00Z,27.9396,-96.8429,2.0,46.81525853,26.56518963,-99999.0,'11111222,11111222,99999999' 
TABS,ioos:station:wmo:42048:1,1995-12-03T16:30:00Z,27.9396,-96.8429,2.0,45.89314865,26.76724304,-99999.0,'11111222,11111222,99999999' 
TABS,ioos:station:wmo:42048:1,1995-12-03T17:00:00Z,27.9396,-96.8429,2.0,43.70378122,27.8176293,-99999.0,'11111222,11111222,99999999' 
TABS,ioos:station:wmo:42048:1,1995-12-03T17:30:00Z,27.9396,-96.8429,2.0,43.94237167,28.34566986,-99999.0,'11111222,11111222,99999999' 
TABS,ioos:station:wmo:42048:1,1995-12-03T18:00:00Z,27.9396,-96.8429,2.0,44.78411362,28.13597875,-99999.0,'11111222,11111222,99999999' 
TABS,ioos:station:wmo:42048:1,1995-12-03T18:30:00Z,27.9396,-96.8429,2.0,43.52476345,28.56244037,-99999.0,'11111222,11111222,99999999' 
TABS,ioos:station:wmo:42048:1,1995-12-03T19:00:00Z,27.9396,-96.8429,2.0,41.3063796,27.76920056,-99999.0,'11111222,11111222,99999999' 
TABS,ioos:station:wmo:42048:1,1995-12-03T19:30:00Z,27.9396,-96.8429,2.0,37.48437432,28.16561911,-99999.0,'11111222,11111222,99999999' 
TABS,ioos:station:wmo:42048:1,1995-12-03T20:00:00Z,27.9396,-96.8429,2.0,36.53579345,25.02842584,-99999.0,'11111222,11111222,99999999' 
TABS,ioos:station:wmo:42048:1,1995-12-03T20:30:00Z,27.9396,-96.8429,2.0,39.03817431,28.3883233,-99999.0,'11111222,11111222,99999999' 
TABS,ioos:station:wmo:42048:1,1995-12-03T21:00:00Z,27.9396,-96.8429,2.0,47.32584184,28.57651133,-99999.0,'11111222,11111222,99999999' 
TABS,ioos:station:wmo:42048:1,1995-12-03T21:30:00Z,27.9396,-96.8429,2.0,48.17854037,32.39289428,-99999.0,'11111222,11111222,99999999' 
TABS,ioos:station:wmo:42048:1,1995-12-03T22:00:00Z,27.9396,-96.8429,2.0,48.18621163,32.18775699,-99999.0,'11111222,11111222,99999999' 
TABS,ioos:station:wmo:42048:1,1995-12-03T22:30:00Z,27.9396,-96.8429,2.0,50.16319235,35.12308215,-99999.0,'11111222,11111222,99999999' 
TABS,ioos:station:wmo:42048:1,1995-12-03T23:00:00Z,27.9396,-96.8429,2.0,50.94595451,33.58440114,-99999.0,'11111222,11111222,99999999' 
TABS,ioos:station:wmo:42048:1,1995-12-03T23:30:00Z,27.9396,-96.8429,2.0,53.48763447,34.30266753,-99999.0,'11111222,11111222,99999999' 
TABS,ioos:station:wmo:42048:1,1995-12-04T00:00:00Z,27.9396,-96.8429,2.0,54.77683781,34.10408333,-99999.0,'11111222,11111222,99999999' 
TABS,ioos:station:wmo:42048:1,1995-12-04T00:30:00Z,27.9396,-96.8429,2.0,54.32332911,34.48147619,-99999.0,'11111222,11111222,99999999' 
TABS,ioos:station:wmo:42048:1,1995-12-04T01:00:00Z,27.9396,-96.8429,2.0,52.7777834,33.49263352,-99999.0,'11111222,11111222,99999999' 
TABS,ioos:station:wmo:42048:1,1995-12-04T01:30:00Z,27.9396,-96.8429,2.0,52.55805354,32.84763766,-99999.0,'11111222,11111222,99999999' 
TABS,ioos:station:wmo:42048:1,1995-12-04T02:00:00Z,27.9396,-96.8429,2.0,51.58251616,32.13772394,-99999.0,'11111222,11111222,99999999' 
TABS,ioos:station:wmo:42048:1,1995-12-04T02:30:00Z,27.9396,-96.8429,2.0,50.50764405,35.14280723,-99999.0,'11111222,11111222,99999999' 
TABS,ioos:station:wmo:42048:1,1995-12-04T03:00:00Z,27.9396,-96.8429,2.0,48.15070704,34.60861887,-99999.0,'11111222,11111222,99999999' 
TABS,ioos:station:wmo:42048:1,1995-12-04T03:30:00Z,27.9396,-96.8429,2.0,45.83590928,36.3562278,-99999.0,'11111222,11111222,99999999' 
TABS,ioos:station:wmo:42048:1,1995-12-04T04:00:00Z,27.9396,-96.8429,2.0,45.5105459,35.71738092,-99999.0,'11111222,11111222,99999999' 
TABS,ioos:station:wmo:42048:1,1995-12-04T04:30:00Z,27.9396,-96.8429,2.0,45.00010523,35.39776547,-99999.0,'11111222,11111222,99999999' 
TABS,ioos:station:wmo:42048:1,1995-12-04T05:00:00Z,27.9396,-96.8429,2.0,43.44379376,34.88737594,-99999.0,'11111222,11111222,99999999' 
TABS,ioos:station:wmo:42048:1,1995-12-04T05:30:00Z,27.9396,-96.8429,2.0,44.34816749,36.66586014,-99999.0,'11111222,11111222,99999999' 
TABS,ioos:station:wmo:42048:1,1995-12-04T06:00:00Z,27.9396,-96.8429,2.0,47.25620331,37.54111479,-99999.0,'11111222,11111222,99999999' 
TABS,ioos:station:wmo:42048:1,1995-12-04T06:30:00Z,27.9396,-96.8429,2.0,48.6400746,36.53212285,-99999.0,'11111222,11111222,99999999' 
TABS,ioos:station:wmo:42048:1,1995-12-04T07:00:00Z,27.9396,-96.8429,2.0,52.0213163,35.34461911,-99999.0,'11111222,11111222,99999999' 
TABS,ioos:station:wmo:42048:1,1995-12-04T07:30:00Z,27.9396,-96.8429,2.0,51.95191961,34.81936243,-99999.0,'11111222,11111222,99999999' 
TABS,ioos:station:wmo:42048:1,1995-12-04T08:00:00Z,27.9396,-96.8429,2.0,56.03884916,35.74805449,-99999.0,'11111222,11111222,99999999' 
TABS,ioos:station:wmo:42048:1,1995-12-04T08:30:00Z,27.9396,-96.8429,2.0,57.32575291,35.04591845,-99999.0,'11111222,11111222,99999999' 
TABS,ioos:station:wmo:42048:1,1995-12-04T09:00:00Z,27.9396,-96.8429,2.0,60.89563457,34.62149766,-99999.0,'11111222,11111222,99999999' 
TABS,ioos:station:wmo:42048:1,1995-12-04T09:30:00Z,27.9396,-96.8429,2.0,63.32034336,33.51872611,-99999.0,'11111222,11111222,99999999' 
TABS,ioos:station:wmo:42048:1,1995-12-04T10:00:00Z,27.9396,-96.8429,2.0,62.32818745,30.79192914,-99999.0,'11111222,11111222,99999999' 
TABS,ioos:station:wmo:42048:1,1995-12-04T10:30:00Z,27.9396,-96.8429,2.0,61.88336387,29.72824415,-99999.0,'11111222,11111222,99999999' 
TABS,ioos:station:wmo:42048:1,1995-12-04T11:00:00Z,27.9396,-96.8429,2.0,62.74920129,27.64872511,-99999.0,'11111222,11111222,99999999' 
TABS,ioos:station:wmo:42048:1,1995-12-04T11:30:00Z,27.9396,-96.8429,2.0,59.96862814,25.29596015,-99999.0,'11111222,11111222,99999999' 
TABS,ioos:station:wmo:42048:1,1995-12-04T12:00:00Z,27.9396,-96.8429,2.0,59.0282381,24.32878953,-99999.0,'11111222,11111222,99999999' 
TABS,ioos:station:wmo:42048:1,1995-12-04T12:30:00Z,27.9396,-96.8429,2.0,60.35965,21.08966097,-99999.0,'11111222,11111222,99999999' 
TABS,ioos:station:wmo:42048:1,1995-12-04T13:00:00Z,27.9396,-96.8429,2.0,61.54092913,18.13100108,-99999.0,'11111222,11111222,99999999' 
TABS,ioos:station:wmo:42048:1,1995-12-04T13:30:00Z,27.9396,-96.8429,2.0,62.96602568,16.39092737,-99999.0,'11111222,11111222,99999999' 
TABS,ioos:station:wmo:42048:1,1995-12-04T14:00:00Z,27.9396,-96.8429,2.0,55.18049157,12.52201661,-99999.0,'11111222,11111222,99999999' 
TABS,ioos:station:wmo:42048:1,1995-12-04T14:30:00Z,27.9396,-96.8429,2.0,55.83702548,10.079246,-99999.0,'11111222,11111222,99999999' 
TABS,ioos:station:wmo:42048:1,1995-12-04T15:00:00Z,27.9396,-96.8429,2.0,47.74380379,6.647352857,-99999.0,'11133222,11111222,99999999' 
TABS,ioos:station:wmo:42048:1,1995-12-04T15:30:00Z,27.9396,-96.8429,2.0,36.8919995,5.214000384,-99999.0,'11133222,11111222,99999999' 
TABS,ioos:station:wmo:42048:1,1995-12-04T16:00:00Z,27.9396,-96.8429,2.0,16.48997396,4.192433661,-99999.0,'11133222,11111222,99999999' 